User: anonymous   Login
Location: Harbor Side
(32.6101°N, 117.0814°W)
Time: 01:18:16
(UTC+00:00)
Language:

Cosmos 1470 - Orbit

View from above orbital plane
View from above orbital plane
View from above satellite
View from above satellite

Ground track
Ground track

The orbit data is extracted from the following two-line orbital elements,

1 14147U 83061A   21174.57117223  .00000604  00000-0  33658-4 0  9997
2 14147  82.4821  36.8252 0013587 251.2233 108.7523 15.11699748826140
Epoch (UTC): 23 June 2021 13:42:29
Eccentricity: 0.0013587
inclination: 82.4821°
perigee height: 521 km
apogee height: 540 km
right ascension of ascending node: 36.8252°
argument of perigee: 251.2233°
revolutions per day: 15.11699748
mean anomaly at epoch: 108.7523°
orbit number at epoch: 82614

The dashed part of the orbit path shows where the satellite is in the earth's shadow,  

DLR